Miscellaneous Local Product
Issued by NWS Hastings, NE

Home | Current Version | Previous Version | Graphics & Text | Print | Product List | Glossary On
Versions: 1 2 3 4 5 6 7 8 9 10 11 12 13 14 15 16 17 18 19 20 21 22 23 24 25 26 27 28 29 30 31 32 33 34 35 36 37 38 39 40 41 42 43 44 45 46 47 48 49 50
000
AXUS43 KGID 220202
MISGRI

GID CWA HOURLY WEATHER ROUNDUP
NATIONAL WEATHER SERVICE HASTINGS NE
900 PM CDT MON MAY 21 2018

NOTE: "FAIR" INDICATES FEW OR NO CLOUDS BELOW 12,000 FEET WITH NO
SIGNIFICANT WEATHER AND/OR OBSTRUCTIONS TO VISIBILITY.

...SOUTH CENTRAL NEBRASKA...

CITY           SKY/WX    TMP DP  RH WIND       PRES   REMARKS
GRAND ISLAND   PTCLDY    68  59  73 E6        29.96S
KEARNEY        CLOUDY    69  60  73 SE10      29.95R
HASTINGS       MOCLDY    71  59  65 SE8       29.96S
ORD            PTCLDY    65  59  81 E5        29.94R
YORK           CLOUDY    66  63  88 CALM      29.97R
AURORA         CLOUDY    69  62  78 E6        29.96S
LEXINGTON      CLOUDY    70  62  74 SE8       29.93R
HOLDREGE       CLOUDY    67  62  82 SE7       29.94R
HEBRON         CLOUDY    71  57  62 S7        29.96S

...NEBRASKA PANHANDLE...

CITY           SKY/WX    TMP DP  RH WIND       PRES   REMARKS
CHADRON        CLOUDY    67  58  72 SE8       29.90R
ALLIANCE       CLOUDY    61  58  90 S6        29.94S
SCOTTSBLUFF    CLOUDY    66  61  84 SE8       29.93F
SIDNEY         MOCLDY    63  56  78 NE8       29.98R

...WESTERN AND NORTH CENTRAL NEBRASKA...

CITY           SKY/WX    TMP DP  RH WIND       PRES   REMARKS
VALENTINE      CLEAR     69  56  62 SE7       29.92S
AINSWORTH      CLEAR     64  59  81 SE7       29.95R
ONEILL         CLEAR     69  58  68 SE5       29.96R
BROKEN BOW     PTCLDY    67  60  78 E5        29.94R
IMPERIAL       CLOUDY    70  60  70 E6        29.91R
NORTH PLATTE   CLOUDY    68  62  81 SE5       29.92R
MCCOOK         CLOUDY    72  60  66 SE10      29.90R

...EASTERN NEBRASKA...

CITY           SKY/WX    TMP DP  RH WIND       PRES   REMARKS
NORFOLK        CLOUDY    68  57  68 S6        29.95S
SO SIOUX CITY  CLEAR     64  57  78 E6        29.96R
TEKAMAH        CLEAR     66  60  81 E6        29.96R
COLUMBUS       CLOUDY    69  58  67 CALM      29.97F
ALBION         CLOUDY    67  61  79 CALM      29.97R
OMAHA EPPLEY   MOCLDY    70  57  63 E6        29.96S
OFFUTT AFB     CLEAR     65  57  75 CALM      29.95S
MILLARD        CLOUDY    69  56  64 CALM      29.97R
LINCOLN        PTCLDY    69  57  65 NE6       29.97R
NEBRASKA CITY  PTCLDY    74  53  48 CALM      29.97S
BEATRICE       CLOUDY    72  58  60 S5        29.96S
FALLS CITY     CLEAR     72  53  51 NE3       29.96R

...NORTHERN KANSAS...

CITY           SKY/WX    TMP DP  RH WIND       PRES   REMARKS
GOODLAND       CLOUDY    69  56  62 S9        29.92R
HILL CITY      CLOUDY    74  59  59 SE10      29.92R
NORTON         CLEAR     72  59  64 SE6       29.92R
PHILLIPSBURG   CLEAR     73  57  56 SE7       29.93R
SMITH CENTER     N/A     68  59  73 E9        29.94R
HAYS           CLOUDY    72  60  66 SE10      29.94R
RUSSELL        CLEAR     72  62  71 SE10      29.94R
CONCORDIA      CLOUDY    68  58  70 SE5       29.96R
SALINA         CLEAR     74  60  61 SE7       29.96R
TOPEKA         CLEAR     69  62  78 SE5       29.99R



USA.gov is the U.S. government's official web portal to all federal, state and local government web resources and services.